Starlink 34111

operational
NORAD ID: 64041 Int'l Des: 2025-102 Owner: SPXS Country: US Constellation: starlink
LEOCIRCULAR

Über Starlink 34111

Beschreibung wird geladen...

Live-Position

3D-Globus wird geladen...

Nächste Überflüge

Höhenverlauf

Altitude vs Time

uPlot chart will show altitude changes over time

Zweizeiliger Elementsatz

1 64041U 25102V 26063.16662816 .00118055 00000-0 96413-2 0 9993
2 64041 70.0017 128.4268 0005402 256.5987 103.4570 14.98702814 44907
Epoch: 4. März 2026 • Age: 20 hours

Aktueller Status

Höhe 580.9 km
Geschwindigkeit 7.57 km/s
Subsatellitenpunkt 48.28°N, 44.32°E
Startdatum 16. Mai 2025
Alter 0.7 years
Typ internet

Technische Details

Klassifizierung Payload
Masse 575.00 kg
Trockenmasse 530.00 kg
Gesamtmasse 575.00 kg
Länge 0.30 m
Durchmesser 4.10 m
Spannweite 29.00 m
Form Box + pan
Hersteller SPXS
Bus-Typ Starlink V2MO
Phasenstatus In Orbit
Besitzer/Staat SPXS/US

Große Konstellationen

Loading constellations...